Theta_e
321 321 321 321 321 320 320 321 321 320 320 320 319 319 319 319 319 319 319 319 318 319 318 319 319 320 319 320 321 321 320 324 328 327 324 326 335 345 345 339 342 347 345 339 343 334 331 334 335 340 341 341 342 338 342 345 344 348 333 326 322 322 324 329 326 328 328 329 332 335 335 333 330 336 337 341 336 335 334 332 333 336 336 338 341 342 342 341
321 321 320 320 320 320 320 320 320 320 320 319 320 319 319 319 319 319 319 319 319 319 319 319 319 319 320 320 321 321 322 325 326 327 326 339 346 343 342 344 350 350 348 338 336 330 330 332 335 337 338 337 342 338 339 342 344 337 330 331 322 328 329 336 333 331 328 328 334 335 335 334 332 336 338 333 331 332 329 330 334 332 334 337 339 339 339 338
320 320 320 320 319 320 320 320 320 320 320 320 320 320 320 319 319 319 319 319 319 319 319 319 319 319 320 321 321 321 323 327 328 326 339 354 341 345 341 346 349 352 339 336 334 331 331 335 337 336 337 333 338 334 337 340 340 339 331 322 328 330 333 343 343 339 333 335 334 335 335 335 335 337 338 333 329 331 329 328 330 330 329 333 335 336 337 338
320 320 320 320 320 320 320 320 320 320 320 319 319 319 319 319 319 319 319 319 319 319 319 318 319 320 321 321 322 324 326 325 321 331 338 346 343 345 343 343 348 349 338 337 332 331 333 334 337 337 335 334 336 336 333 339 334 336 334 328 329 335 333 341 345 339 336 338 336 337 336 333 336 337 338 332 330 332 332 332 331 329 330 332 334 335 338 340
319 319 319 320 320 320 320 319 319 319 319 319 319 319 319 318 318 318 318 318 319 319 318 319 319 320 321 321 321 325 326 316 318 334 341 344 343 343 347 343 350 336 334 339 331 329 328 330 335 336 334 331 333 332 333 337 339 338 331 335 337 336 331 343 344 341 336 339 338 336 334 333 339 339 335 333 328 326 331 333 334 333 333 333 334 337 339 339
319 319 319 319 319 319 319 319 319 319 319 319 319 318 318 318 318 318 318 319 319 319 319 319 320 321 321 322 323 326 322 307 327 332 344 342 344 347 346 346 350 343 336 330 325 326 326 330 334 332 331 330 329 327 331 334 337 328 332 337 341 336 334 341 345 343 340 338 335 334 336 338 337 336 338 335 332 334 338 336 336 335 336 337 338 339 339 338
319 319 319 319 319 319 319 319 319 319 319 319 319 318 318 318 318 318 318 318 318 319 319 320 321 321 322 321 325 325 324 324 330 335 345 343 342 344 344 346 348 339 335 323 321 322 326 328 332 332 331 328 328 327 329 331 335 330 328 335 339 342 335 343 344 343 339 338 335 338 339 337 335 331 335 334 334 338 338 337 337 337 338 339 337 338 338 338
318 319 318 319 319 319 319 319 319 319 319 319 319 318 318 318 318 318 318 318 318 319 319 320 321 321 321 325 326 324 320 323 332 334 345 348 344 338 343 334 331 325 322 319 320 321 326 327 329 332 327 325 328 326 332 331 335 334 333 335 338 343 339 342 342 341 341 340 341 339 336 336 337 333 334 330 334 335 337 338 337 337 337 337 339 338 339 340
318 318 318 318 318 319 319 319 319 319 319 318 318 318 318 318 318 318 318 318 318 319 320 320 321 322 322 321 319 317 319 327 329 325 331 336 329 333 334 327 326 321 320 321 321 323 326 328 330 332 326 325 327 323 335 332 329 334 335 338 339 339 340 341 343 343 340 342 342 337 335 337 339 336 332 333 334 337 338 337 337 337 335 337 338 339 339 339
318 318 318 318 318 318 318 319 319 319 318 318 318 318 318 317 317 317 318 318 319 319 320 321 321 322 323 324 325 315 322 332 335 327 330 330 328 330 330 325 322 320 318 318 319 322 324 328 329 332 330 327 327 329 334 333 334 337 339 339 338 338 339 340 342 343 342 342 340 335 335 336 339 337 325 336 335 336 337 336 336 336 336 336 338 339 340 340
317 317 317 317 317 318 318 319 319 318 318 318 318 317 317 317 317 317 318 318 319 320 320 321 323 321 325 327 318 315 329 329 333 332 330 328 325 324 323 324 322 321 319 318 317 322 325 326 329 332 328 324 328 330 334 335 338 341 338 337 337 338 339 339 342 340 342 338 338 337 334 339 335 336 328 333 335 336 336 335 335 336 337 337 338 339 341 341
317 317 317 317 317 317 318 318 318 318 318 318 317 316 317 317 317 317 317 318 319 320 321 321 321 324 327 325 318 318 329 328 333 332 331 327 324 323 323 322 322 321 319 316 316 320 322 324 327 328 321 325 318 330 333 339 340 340 339 328 332 337 335 339 338 339 342 335 342 335 333 332 330 331 333 333 335 336 335 333 334 335 336 337 339 339 341 342
317 317 317 316 316 317 318 318 318 318 318 316 316 316 316 316 317 317 317 317 319 320 321 322 324 329 326 319 319 325 328 331 332 330 330 328 326 325 326 323 322 321 320 318 317 319 320 324 328 324 326 321 320 322 338 338 343 343 339 331 330 330 329 337 341 339 337 337 342 337 316 322 329 334 334 337 334 334 335 333 334 335 336 337 338 338 340 342
316 317 316 316 316 316 317 318 318 317 316 316 315 315 315 315 316 317 318 318 319 320 321 322 326 330 327 315 320 323 327 330 328 329 328 328 323 320 322 324 323 322 323 320 320 320 320 325 327 326 328 321 324 343 335 334 339 332 335 333 325 323 323 331 335 336 331 339 342 339 317 320 327 332 336 336 335 332 330 332 333 334 335 336 336 338 340 340
316 316 316 316 315 316 316 317 317 316 316 316 314 314 315 315 316 317 318 318 319 321 322 323 328 328 326 316 323 325 347 330 324 326 327 323 321 316 318 322 321 322 322 321 319 320 321 325 327 323 320 324 326 328 326 329 332 332 324 320 325 323 321 329 337 335 329 334 343 336 320 320 327 332 335 338 336 332 329 330 332 332 334 334 336 337 338 339
316 316 315 315 315 316 316 316 316 316 316 315 313 314 316 316 316 317 319 321 325 322 324 327 332 328 324 313 320 336 325 323 323 326 326 325 320 317 318 319 320 320 319 319 320 321 322 325 322 323 321 326 323 324 326 321 327 330 322 319 321 325 322 323 328 336 335 333 340 332 321 323 321 331 334 337 337 334 330 330 331 332 332 333 335 336 338 338
316 315 315 315 315 315 316 316 316 316 315 314 313 316 318 318 320 319 321 321 324 323 329 331 327 328 312 319 327 321 319 321 323 323 323 325 323 317 316 316 315 316 316 318 318 318 321 322 324 323 322 318 322 326 322 319 316 318 321 317 321 321 322 321 329 334 336 333 327 331 328 324 331 332 334 336 337 335 332 330 331 333 332 333 335 335 337 338
316 315 315 314 315 315 315 315 315 315 314 313 312 316 322 322 323 321 321 323 332 330 329 331 331 324 312 320 314 315 319 320 320 323 322 324 322 317 315 313 313 314 314 313 316 313 318 318 322 315 318 318 319 321 318 311 315 316 320 318 316 322 323 321 321 328 333 332 329 325 325 326 331 331 333 334 337 335 334 332 332 332 333 333 333 334 337 337
316 315 315 314 314 314 314 315 315 314 314 313 314 316 319 321 327 329 330 331 326 324 316 316 320 309 305 313 316 318 319 319 321 321 319 320 320 319 318 319 314 311 309 309 311 311 316 315 319 314 312 315 317 319 320 323 321 320 322 319 317 319 321 322 328 334 333 325 325 324 324 326 328 330 329 334 338 336 335 335 333 333 332 332 332 334 336 338
316 315 314 314 314 314 314 314 314 313 312 316 324 328 326 329 324 322 329 328 323 315 315 315 318 317 317 317 317 321 324 322 316 319 320 322 318 317 317 316 312 312 310 307 310 310 317 309 310 311 312 316 320 321 324 324 322 323 323 323 321 319 324 329 330 331 334 330 324 324 325 326 326 329 331 334 337 337 335 334 333 334 332 331 331 333 336 338
315 315 314 314 313 313 314 313 313 313 311 315 322 324 315 315 312 309 316 315 316 316 316 315 317 316 315 317 319 320 316 316 319 316 319 322 320 316 313 313 310 306 309 311 312 315 315 310 310 314 317 320 320 323 326 325 326 324 322 320 319 322 318 328 330 332 335 326 323 326 326 328 327 328 328 333 334 334 334 334 333 332 332 331 332 333 336 338
315 315 314 314 313 313 313 313 312 312 309 317 325 322 320 320 321 323 319 311 314 316 316 316 317 316 318 319 319 320 319 314 314 316 321 320 318 312 313 310 309 306 311 311 314 313 310 308 312 316 320 322 323 326 326 324 323 323 319 317 317 320 322 327 332 334 333 326 323 328 325 327 329 329 330 333 335 334 335 336 335 334 332 331 331 334 336 337
315 314 314 314 313 312 312 312 312 308 320 328 330 321 319 324 326 328 324 317 311 316 316 316 315 316 316 318 320 321 314 313 311 315 316 318 315 314 314 309 309 309 310 310 309 311 307 310 312 317 320 319 318 320 321 323 324 320 318 317 313 321 316 313 325 331 330 328 324 326 323 325 327 331 331 336 334 336 337 338 337 337 334 331 330 333 334 336
315 314 314 314 312 312 311 311 309 316 321 324 322 320 324 326 326 326 320 314 309 312 315 315 316 315 314 315 318 318 314 313 313 313 320 317 313 314 311 310 309 309 309 310 309 309 308 313 317 317 316 315 314 317 317 318 317 318 318 319 316 317 317 318 321 331 332 330 331 327 322 321 325 323 326 330 334 337 337 338 338 336 337 335 333 334 335 335
314 314 314 313 312 311 311 308 316 326 324 322 322 325 325 327 328 326 319 316 311 309 316 314 316 316 317 322 321 314 314 314 315 318 319 317 315 310 310 314 310 307 308 310 309 308 308 314 315 313 313 313 312 312 315 314 316 318 320 318 318 320 318 320 326 324 320 320 327 323 309 310 320 324 324 328 330 333 336 336 336 337 336 336 332 333 336 338
314 314 314 313 312 311 307 318 325 323 320 319 322 325 326 326 327 328 320 311 303 307 313 307 317 310 320 315 318 316 316 310 317 319 319 318 322 315 313 309 310 305 308 309 309 309 309 315 313 311 311 311 311 311 313 315 313 313 314 321 319 319 321 320 321 320 311 310 320 325 309 306 317 318 322 324 325 329 336 335 335 337 336 335 334 333 333 335
314 313 313 313 312 309 320 318 323 320 318 320 324 325 325 326 334 327 315 308 301 308 308 313 314 312 317 316 316 317 304 308 319 319 318 319 314 319 309 309 309 310 311 311 308 304 311 311 310 311 310 310 309 309 312 313 311 311 322 321 320 319 318 319 320 320 317 321 323 322 317 312 309 313 320 324 324 325 330 333 334 334 337 335 335 332 335 335
314 313 312 312 311 310 320 321 322 319 319 321 324 324 326 332 332 327 311 299 294 311 307 311 313 320 317 317 317 312 312 316 310 314 320 320 319 316 312 309 309 308 309 308 300 309 309 308 309 308 308 307 307 310 313 314 310 313 321 320 318 319 320 319 321 318 319 318 314 316 319 313 313 316 323 328 322 324 327 331 333 335 336 337 335 333 333 335
313 313 312 311 310 309 314 319 323 318 323 324 323 325 327 334 327 316 308 296 305 308 318 308 319 315 315 316 314 314 314 314 309 314 320 320 320 317 310 312 310 309 310 309 303 308 310 310 311 310 308 307 310 311 314 312 309 315 319 319 319 319 319 321 319 317 319 315 309 315 318 309 311 319 320 327 323 322 326 331 333 335 335 336 335 334 334 335
313 312 311 311 312 318 320 322 321 323 324 324 324 328 328 326 320 307 301 293 308 302 310 311 310 309 313 310 310 313 311 313 314 315 316 314 316 316 315 316 311 309 307 309 308 308 310 315 315 311 309 310 312 313 314 312 314 321 318 317 317 317 318 322 321 317 314 305 311 315 318 314 305 314 318 319 320 325 327 330 335 337 337 337 337 335 333 334
311 311 311 310 319 326 326 320 325 325 326 327 327 327 325 321 308 302 296 299 308 307 311 309 308 312 309 308 306 311 310 311 312 313 311 314 313 313 313 310 313 309 308 308 306 308 309 310 309 310 313 313 313 310 313 314 318 316 314 313 314 315 317 316 317 318 308 304 313 318 317 315 305 313 320 325 328 328 328 327 329 330 332 335 338 336 334 334
310 309 310 312 320 322 316 318 325 328 327 327 325 322 319 307 312 300 297 309 298 304 305 306 309 309 308 308 308 308 309 310 312 311 310 311 309 308 309 304 309 302 302 304 303 308 306 307 310 310 314 310 309 308 311 314 316 314 313 313 306 307 310 304 309 305 306 303 312 318 319 313 310 316 323 325 326 327 330 330 330 328 330 332 336 337 337 335
309 309 308 312 316 320 320 323 329 332 329 325 322 321 312 305 298 303 302 304 301 308 305 309 308 307 308 307 306 308 309 306 310 310 311 310 309 310 311 309 310 306 300 306 305 303 305 309 308 309 310 312 310 304 306 306 311 311 310 308 305 303 303 300 303 306 307 312 315 317 320 310 316 320 325 324 327 330 329 332 331 332 332 332 333 336 337 335
308 309 317 321 318 323 323 336 332 330 323 325 320 314 308 298 299 309 303 304 304 309 308 307 308 308 307 305 308 308 306 309 308 309 307 308 306 306 308 309 308 308 308 307 301 303 299 299 304 307 304 311 309 308 309 309 310 310 314 310 307 308 305 297 301 298 302 305 308 321 312 307 307 316 328 332 331 333 335 335 335 335 335 335 334 336 338 337
307 312 323 330 324 325 326 327 330 330 325 319 314 308 301 301 305 302 303 305 307 307 306 309 307 306 305 306 308 309 309 306 309 308 307 307 305 307 307 307 309 308 308 301 305 304 302 303 308 311 311 311 308 311 312 311 311 314 314 314 308 307 314 303 306 307 307 306 306 311 308 319 316 327 331 332 334 335 336 337 336 335 337 336 332 333 337 337
313 333 328 331 326 327 328 327 329 328 323 316 309 305 302 305 302 306 304 309 307 305 306 308 307 304 305 306 308 307 310 306 308 307 307 307 309 307 309 309 309 309 307 303 305 301 304 301 308 309 311 311 310 312 311 312 302 309 312 307 309 315 314 310 310 312 310 309 305 313 311 315 324 323 324 327 333 332 331 336 332 333 337 336 336 334 334 338
327 333 323 322 321 329 328 330 329 327 322 314 308 303 308 307 309 307 310 306 308 308 306 301 303 303 303 303 304 306 308 308 307 306 305 308 305 307 306 309 310 310 312 308 306 309 301 302 308 308 307 310 314 313 313 313 313 314 307 310 316 319 316 311 302 306 305 303 304 309 307 308 311 306 324 324 325 330 331 332 334 335 337 334 336 336 338 338
327 321 321 322 325 330 331 332 328 325 317 312 306 310 311 306 310 308 311 308 308 308 304 304 305 306 303 304 304 306 308 304 306 306 304 306 303 311 308 308 311 310 311 314 306 308 308 300 305 308 309 311 313 313 310 314 316 312 312 318 309 305 303 309 307 299 300 300 302 305 306 310 313 310 319 321 323 327 331 334 334 331 331 333 335 336 340 341
328 322 313 322 327 328 331 333 326 321 314 308 307 305 309 309 312 309 310 310 309 308 303 305 304 306 306 304 306 306 307 302 306 305 304 305 302 308 309 310 309 311 312 312 308 309 309 300 302 309 308 311 311 310 303 306 313 314 317 313 317 312 306 303 307 307 306 300 303 301 303 304 316 316 321 322 324 329 331 330 332 332 333 331 334 335 338 340
327 318 312 325 328 329 335 329 319 315 311 305 308 307 312 308 310 311 312 310 308 306 305 306 306 305 305 305 306 304 307 305 305 306 305 307 305 310 309 311 309 311 311 312 309 311 306 309 297 306 311 309 303 307 305 309 308 309 309 308 310 310 312 310 310 308 307 304 302 301 298 306 316 326 326 327 328 329 331 330 333 332 333 333 335 335 337 339
320 312 317 328 328 333 329 321 313 309 308 310 311 311 310 308 310 310 311 311 310 311 307 307 307 304 307 306 305 307 305 305 306 305 306 307 306 304 310 310 311 309 312 311 308 310 306 306 301 305 306 303 305 311 313 311 311 313 310 308 308 306 304 302 301 313 310 304 299 304 300 312 321 329 329 331 332 332 334 333 331 336 333 335 335 338 340 339
318 309 315 328 330 328 319 309 309 312 309 307 307 310 310 318 310 310 310 311 309 308 311 308 308 307 307 306 308 306 306 306 306 305 307 305 308 308 309 312 311 312 309 308 308 312 311 309 305 302 304 306 307 312 315 315 315 314 314 310 311 310 309 305 297 302 307 307 309 308 304 308 324 327 329 333 335 335 336 337 334 335 335 337 337 338 341 340
320 312 324 331 329 324 315 309 312 309 307 310 314 313 314 311 309 310 309 310 307 309 308 306 307 306 307 307 308 307 307 305 307 304 307 307 308 311 311 312 312 311 310 309 310 311 313 306 303 304 308 308 311 314 315 315 315 312 312 313 312 310 310 307 306 308 306 307 303 303 301 311 322 326 332 334 336 339 337 335 334 334 335 337 343 342 342 342
313 313 318 327 330 324 313 304 305 306 308 311 312 311 313 312 310 309 308 309 308 307 306 306 308 308 307 310 308 306 309 302 307 306 306 308 307 312 312 311 312 310 310 310 306 312 305 310 305 300 300 302 305 310 309 314 314 311 311 315 315 313 312 311 310 312 305 306 305 301 296 305 321 329 331 336 332 335 333 339 341 338 335 336 340 345 345 344
316 318 317 322 326 322 309 311 309 308 309 309 309 308 310 310 311 311 310 309 310 309 308 306 308 309 307 309 308 309 309 306 305 308 308 308 308 311 312 311 312 310 312 316 322 314 307 306 308 299 295 293 295 296 299 304 308 312 318 314 315 314 311 309 304 307 301 308 308 304 304 313 322 330 331 334 332 332 336 337 338 338 339 334 335 335 338 340
314 307 314 314 319 317 316 317 314 312 311 311 308 309 310 308 311 311 311 310 311 310 309 309 310 309 307 308 306 306 306 309 306 307 307 307 308 310 311 312 311 313 320 320 318 314 307 309 310 307 304 301 303 305 309 311 310 305 311 310 313 313 313 313 311 307 302 307 306 310 310 314 317 322 326 329 330 332 333 335 335 335 338 339 337 339 339 340
316 307 313 310 315 314 313 314 311 312 309 313 309 310 308 308 310 310 312 307 310 309 309 308 308 306 306 306 305 305 306 306 308 307 306 307 309 310 311 311 312 315 324 315 319 311 309 306 310 311 308 307 307 307 312 311 309 308 308 310 312 312 313 312 307 304 315 306 302 312 317 312 316 321 325 325 331 332 332 333 333 335 337 338 339 337 337 340
308 316 317 322 312 309 310 310 314 312 311 311 310 312 309 308 308 306 309 309 311 311 306 308 308 308 308 307 307 304 306 305 308 305 307 307 308 310 308 311 310 321 318 312 314 310 307 304 312 309 307 308 310 309 311 311 309 311 311 311 312 312 312 311 310 310 312 305 301 314 319 314 317 323 326 328 330 330 330 332 335 336 337 338 339 339 339 336
317 315 313 318 309 313 315 317 317 316 314 314 312 311 308 308 308 309 308 307 308 308 308 304 306 307 308 309 307 305 309 303 303 307 307 308 307 308 307 309 310 313 311 310 312 315 309 304 308 310 307 308 309 308 311 311 310 309 311 311 313 313 314 315 313 313 311 311 314 316 317 319 323 325 328 328 330 331 331 334 334 334 335 336 336 336 337 338
314 311 315 317 315 311 313 315 315 314 312 314 310 311 309 309 307 309 310 308 305 306 310 305 307 310 309 308 309 305 308 308 307 306 309 308 308 309 308 308 308 310 311 309 310 314 306 306 311 308 307 308 310 311 310 309 308 308 308 309 310 312 311 312 314 312 312 315 317 318 318 319 326 330 329 330 330 331 332 331 331 332 333 332 331 331 332 333
316 319 319 313 310 311 312 311 311 312 311 313 310 310 310 309 308 310 310 311 308 307 308 306 308 309 309 308 308 307 310 311 310 310 311 310 305 311 307 308 310 308 310 309 309 310 308 306 310 308 306 304 308 309 309 310 309 306 308 309 310 309 310 311 312 314 314 312 315 316 313 316 325 331 330 329 328 327 326 327 328 329 330 329 328 328 329 330
322 323 322 316 309 315 310 311 310 310 308 312 312 312 310 309 311 312 309 311 311 311 312 310 310 308 310 308 308 309 312 311 312 313 312 312 313 312 312 311 311 309 309 309 312 308 310 307 306 306 303 301 308 308 308 307 306 304 304 307 312 313 312 313 313 315 318 317 314 311 311 321 326 328 325 325 325 325 326 326 327 328 329 328 327 327 328 329
Wind_Speed
13 13 13 12 12 12 12 11 11 11 10 10 10 10 9 9 8 8 8 8 8 8 8 9 9 10 11 11 12 13 12 12 10 9 10 4 6 5 2 2 9 9 12 11 11 8 9 9 9 6 7 7 5 5 7 3 2 1 2 2 2 6 7 9 9 8 14 11 12 10 9 11 10 7 7 6 8 7 7 9 9 9 13 15 17 18 17 15
14 13 13 12 12 12 12 11 11 11 11 11 10 10 10 9 9 8 8 7 8 9 9 8 10 10 11 12 12 12 13 11 12 10 8 7 9 6 3 6 7 12 13 12 11 9 8 8 8 6 8 7 3 2 3 3 5 4 1 2 2 2 5 7 6 8 9 12 11 11 9 8 10 8 6 6 9 9 11 10 11 14 14 16 17 17 16 15
14 14 14 13 12 12 12 13 12 12 11 11 10 10 10 10 9 9 9 9 9 9 10 9 10 10 11 11 11 12 12 12 11 8 7 5 10 7 3 9 9 11 15 11 9 9 9 5 5 7 8 5 3 3 2 3 7 5 2 1 1 3 3 3 5 5 13 12 11 11 9 10 9 7 6 7 10 9 10 10 11 12 15 16 16 16 15 14
14 14 14 13 13 13 13 13 12 12 12 11 11 10 10 11 10 10 10 10 10 10 9 10 10 10 11 12 10 12 10 11 6 8 7 6 6 6 4 10 11 13 17 12 6 10 8 7 6 8 8 5 4 4 4 2 2 3 4 1 5 6 5 9 6 7 12 11 11 10 10 10 8 7 6 9 9 8 8 9 10 14 15 16 16 15 14 13
15 14 14 14 14 14 13 13 13 12 12 12 11 11 10 10 10 10 10 10 10 10 10 10 11 11 11 11 11 9 8 7 7 9 7 7 6 3 4 11 9 14 14 10 8 9 8 8 7 7 8 5 5 5 2 4 5 1 2 6 2 11 4 7 6 3 9 9 9 9 10 10 7 6 7 6 5 6 8 9 12 14 14 15 15 15 12 12
15 15 15 15 14 14 14 13 13 13 12 12 12 11 11 10 10 11 11 11 10 11 10 11 11 12 12 9 11 9 6 1 6 6 7 5 5 3 5 7 8 12 11 10 9 7 8 8 8 8 6 7 1 6 5 2 3 1 1 3 9 6 5 3 5 3 6 8 9 9 9 10 8 7 5 5 5 8 8 10 13 14 14 14 13 13 13 11
15 16 15 15 15 15 14 14 14 14 13 13 12 11 12 11 11 11 11 11 11 10 11 11 11 12 12 12 11 9 8 8 4 7 9 5 2 7 7 7 9 10 11 10 9 8 8 9 8 9 7 6 5 5 3 5 1 2 2 2 7 9 4 1 4 4 6 9 9 6 11 9 9 9 5 7 6 8 9 11 14 14 14 14 13 12 11 11
16 16 16 16 15 15 15 14 14 13 13 13 12 12 12 12 11 11 11 11 11 11 10 11 11 12 12 10 7 8 8 8 9 8 8 5 8 9 10 10 12 10 10 11 9 9 7 10 9 5 8 7 6 8 5 6 1 3 2 5 4 4 4 5 4 3 7 7 7 5 9 9 8 8 7 8 9 10 11 13 14 14 13 12 12 12 11 11
16 16 16 16 16 16 16 15 14 14 13 12 12 12 12 12 12 12 12 11 11 12 11 11 11 11 10 7 7 9 8 7 7 9 10 9 10 11 13 10 11 9 9 9 9 9 7 7 10 8 8 6 4 8 5 6 4 4 5 2 4 5 5 1 5 4 7 5 4 6 9 9 8 10 8 9 10 10 12 14 14 14 13 12 12 12 11 10
16 16 16 16 17 16 16 15 15 14 14 13 11 12 12 12 12 12 12 11 11 12 12 11 11 10 10 7 8 7 7 5 5 7 7 7 10 10 11 6 8 8 8 8 7 10 11 4 8 6 8 11 8 5 5 7 2 2 3 3 2 5 4 1 7 5 3 7 7 6 9 9 9 6 8 7 10 12 13 14 14 14 12 12 11 11 9 10
16 16 17 16 17 17 17 16 16 15 15 13 13 12 12 12 12 12 11 12 11 11 12 12 9 10 8 9 10 3 1 3 3 6 5 6 8 8 7 6 7 7 7 6 8 8 8 7 6 6 7 5 5 2 4 6 5 2 1 4 4 7 4 6 6 5 5 7 8 4 5 8 11 6 7 9 10 13 13 14 14 13 11 10 11 11 9 8
16 17 17 17 17 17 17 17 16 15 15 15 14 13 12 12 12 11 12 11 11 12 12 11 10 6 9 10 4 8 3 5 3 5 5 6 7 6 3 5 7 8 7 7 8 7 7 6 8 8 6 7 9 1 3 2 1 1 5 6 2 7 6 7 8 8 4 6 4 6 9 9 8 6 12 12 11 11 13 14 14 13 11 10 10 10 8 8
17 17 17 17 17 17 17 17 17 16 17 16 14 13 13 13 12 12 11 11 12 13 12 10 10 7 8 4 9 5 3 5 3 3 5 6 4 3 5 5 7 7 7 8 6 7 5 7 7 11 7 9 9 5 3 7 2 5 2 5 6 5 5 6 6 7 5 5 2 9 7 7 7 8 12 12 11 14 12 12 12 12 11 11 10 9 9 9
18 18 18 17 17 17 17 17 17 17 17 15 14 14 13 13 12 11 11 12 11 10 8 8 7 8 8 5 7 5 1 3 3 5 5 3 5 5 5 6 6 7 5 7 7 4 6 7 8 11 10 10 6 3 10 5 6 4 1 5 3 3 2 8 8 11 9 4 2 3 5 7 8 3 9 10 12 14 13 12 12 12 12 11 9 9 9 10
18 18 18 18 17 17 17 17 17 17 17 15 14 14 12 11 10 10 10 10 13 12 11 10 8 6 6 8 4 5 7 6 6 5 4 6 5 4 7 6 7 6 5 6 4 5 6 7 8 9 10 6 9 11 7 8 7 3 4 3 2 3 3 3 6 10 9 9 6 4 2 6 5 10 11 11 11 12 13 13 11 10 11 12 10 9 9 10
18 19 19 18 18 18 18 15 14 15 16 15 13 13 14 10 8 8 10 11 8 8 8 7 8 7 10 7 6 9 6 9 7 4 5 7 5 3 5 6 5 6 5 7 5 3 6 8 9 8 10 4 9 8 7 7 7 6 6 6 2 3 6 8 8 10 9 10 8 7 2 1 1 13 12 11 12 10 10 12 12 12 12 11 11 9 9 10
18 19 18 18 18 18 18 15 15 15 15 14 14 13 10 6 7 9 8 9 8 7 6 5 4 5 5 7 7 9 6 6 3 6 5 4 6 2 6 6 6 7 6 5 6 6 8 10 7 10 9 10 7 6 7 5 6 7 5 3 6 5 9 4 6 5 5 10 7 7 2 4 3 12 13 11 11 12 11 10 11 11 10 10 10 10 9 9
16 16 19 19 19 19 18 15 16 16 14 13 10 11 7 6 7 6 6 8 6 6 7 8 7 6 6 7 6 5 3 5 6 4 5 4 4 6 6 7 5 6 8 7 8 10 9 9 9 10 8 10 8 7 7 6 6 5 2 3 3 1 12 10 11 10 10 12 11 12 6 5 7 11 12 13 12 11 11 11 11 11 11 10 10 10 11 10
19 18 18 18 19 19 19 18 16 17 15 14 12 11 13 8 7 8 7 5 6 5 6 7 6 3 9 7 4 6 3 5 3 7 7 8 7 6 5 3 5 8 9 9 8 12 8 9 9 9 11 7 7 7 5 6 7 6 7 2 5 4 6 7 8 8 11 13 10 13 10 14 13 14 13 13 12 10 10 11 9 9 10 10 10 10 10 10
19 19 19 18 18 19 19 19 16 15 15 10 6 5 5 4 6 4 9 8 9 9 7 7 3 4 8 5 6 9 4 7 8 6 6 5 6 6 7 7 7 10 9 9 10 12 7 10 10 10 10 8 8 3 7 8 6 3 7 5 3 4 6 8 9 13 12 10 12 12 5 4 9 7 10 11 11 11 10 11 10 9 10 10 10 10 11 10
18 19 18 16 16 20 18 18 15 14 14 7 9 8 6 11 8 5 5 4 5 2 4 4 7 8 9 1 4 10 7 8 4 6 8 5 8 7 8 8 9 9 9 11 7 8 10 10 11 12 9 4 3 5 7 7 8 7 4 5 5 7 5 5 7 8 9 9 8 6 9 7 8 8 4 7 13 11 12 11 12 12 10 9 10 11 11 11
19 17 16 15 15 17 19 17 16 17 11 7 6 7 8 8 5 7 7 3 8 3 2 3 2 4 4 1 4 4 7 4 8 7 6 8 7 10 11 9 9 10 9 10 7 7 8 11 10 15 5 4 6 6 6 7 7 10 5 2 1 7 7 2 5 9 1 3 6 8 8 8 5 3 10 14 9 10 11 11 10 11 11 9 10 11 12 12
20 19 17 17 16 16 17 17 15 12 6 6 7 3 7 7 6 4 7 10 2 3 5 5 6 6 6 1 2 5 7 6 9 7 8 9 6 9 1 8 8 11 8 8 8 8 8 10 16 5 3 5 10 9 7 7 5 5 5 4 4 4 1 4 6 10 10 5 4 9 8 5 3 4 6 9 7 9 9 12 11 10 10 11 11 11 12 12
20 20 18 16 18 16 18 17 19 8 8 9 8 5 5 5 6 7 7 7 5 5 1 3 5 2 3 4 5 8 10 6 5 11 8 8 9 4 7 8 8 7 5 8 12 11 9 10 3 6 4 7 11 9 7 8 5 2 7 9 3 2 3 1 5 1 1 5 0 6 6 5 5 6 5 5 15 10 9 10 11 10 11 10 10 11 12 13
20 20 20 19 19 17 16 18 5 7 4 7 4 4 3 4 5 6 8 6 5 7 2 6 6 2 5 2 6 9 6 3 7 8 6 9 4 5 5 1 7 6 8 8 10 12 15 5 3 5 3 8 10 10 9 7 5 2 9 15 7 6 4 7 9 7 7 5 6 7 7 9 8 8 8 5 10 10 11 12 13 13 12 11 12 12 12 12
17 20 19 19 19 18 17 6 5 5 5 4 7 4 2 6 5 5 7 7 6 6 8 6 3 5 1 7 5 4 4 5 3 5 4 5 9 10 2 8 5 5 7 5 6 7 9 5 4 7 10 11 11 10 13 6 5 2 3 6 7 6 13 5 13 6 3 5 6 8 8 5 6 10 10 10 12 11 11 14 14 13 12 12 11 12 13 14
17 19 19 18 16 17 7 2 9 11 9 5 2 5 4 4 2 4 6 8 4 4 1 8 6 6 5 5 6 4 10 9 4 6 6 3 9 7 11 3 5 5 7 2 4 8 11 2 2 3 8 10 9 10 10 7 6 5 4 4 7 5 3 4 10 10 4 5 5 7 5 0 4 9 13 15 14 15 15 15 15 15 14 15 13 13 14 14
16 15 15 14 11 7 5 9 12 8 6 6 5 5 5 3 1 5 5 6 8 7 3 7 5 3 6 7 5 9 10 4 9 9 6 7 7 6 6 5 6 2 7 5 10 6 8 10 6 7 9 10 10 10 4 0 4 4 5 3 5 4 4 5 7 6 2 5 6 7 9 4 4 4 8 11 14 15 15 15 15 15 16 15 16 14 16 15
16 15 15 14 14 13 9 6 8 10 6 5 5 5 4 2 7 5 7 2 4 2 2 4 2 6 7 2 8 3 5 2 6 7 5 2 5 10 8 2 5 5 2 9 10 5 8 9 7 11 10 9 10 13 7 3 7 6 2 4 6 7 8 8 4 7 1 2 4 9 12 4 1 2 5 9 10 13 14 14 16 16 18 18 16 16 15 15
16 15 14 13 13 6 5 7 9 7 5 4 6 6 3 5 6 7 9 1 2 7 7 6 6 6 6 9 7 7 8 7 4 4 4 6 9 6 7 5 7 6 8 9 13 10 9 0 9 8 9 10 9 13 3 3 6 4 6 6 5 4 8 10 10 1 9 7 5 11 17 8 4 5 7 8 9 10 10 12 11 12 15 15 16 16 15 15
16 13 10 9 5 4 5 8 7 5 1 5 6 7 6 5 7 8 5 10 4 7 4 5 5 3 9 8 6 6 5 0 8 3 9 6 9 7 5 9 5 7 8 8 9 10 9 9 9 8 11 9 9 4 1 3 0 4 5 6 2 4 3 3 7 7 6 5 4 8 14 10 3 6 7 9 6 10 9 9 11 14 16 15 15 15 16 16
15 12 8 7 6 7 8 1 7 5 5 7 8 7 6 9 8 8 7 4 10 7 6 6 4 4 2 2 9 2 4 7 4 4 8 6 8 7 9 8 8 7 8 8 10 9 12 11 7 9 8 13 7 10 6 7 8 8 5 5 7 4 3 4 3 6 4 3 7 11 13 6 7 3 8 12 10 10 11 11 14 17 17 17 15 16 15 16
16 12 10 12 8 7 11 11 6 6 8 8 8 7 8 7 8 3 3 3 2 3 7 5 5 3 3 5 7 3 2 5 5 5 7 2 9 4 5 8 11 7 9 1 6 9 6 11 12 9 9 10 10 10 8 8 9 9 7 6 6 7 6 5 5 5 5 4 2 8 13 1 2 5 10 10 8 5 7 11 13 15 16 17 17 17 16 15
17 10 6 8 11 9 7 4 4 7 8 7 8 8 8 7 4 4 8 5 6 5 4 3 5 4 5 9 8 2 8 4 6 6 5 6 5 7 8 7 4 7 10 4 7 7 6 10 10 9 9 11 12 12 8 5 8 7 8 8 7 8 3 1 3 3 4 4 11 13 8 8 10 5 5 6 9 10 12 10 8 9 13 15 16 16 16 16
22 9 9 5 7 11 13 10 7 6 7 7 8 9 8 7 6 2 5 4 4 2 5 6 8 7 9 6 4 5 11 6 3 2 8 6 4 5 0 8 5 6 3 7 4 7 11 4 4 10 6 12 11 13 13 6 6 7 6 3 8 8 5 5 1 7 4 3 4 5 1 6 6 8 7 14 10 11 12 11 13 13 9 11 15 17 15 16
14 4 8 6 6 6 9 6 7 7 7 8 8 8 10 4 2 3 4 7 1 7 4 6 6 9 5 4 8 5 10 12 9 8 3 7 4 4 7 2 2 5 7 9 4 8 5 5 8 6 2 7 10 10 11 8 9 7 9 9 7 4 7 5 7 5 7 3 5 6 4 4 2 6 3 8 6 6 10 7 9 10 15 13 10 13 18 14
4 6 6 8 8 6 6 6 5 6 7 9 9 9 5 2 2 4 5 5 9 5 7 9 8 8 5 11 7 8 7 7 4 8 5 1 4 4 3 5 5 3 5 5 6 3 9 5 9 9 8 8 11 9 13 13 7 1 7 7 5 2 3 4 4 4 7 5 4 5 2 6 3 2 4 6 10 6 1 2 6 9 11 12 10 10 9 10
9 7 7 5 6 5 5 5 6 7 9 9 11 12 3 9 7 7 6 4 7 8 9 8 6 5 5 9 5 9 8 10 8 5 3 3 1 1 4 7 12 7 2 4 6 3 1 7 1 5 13 10 9 7 9 13 6 8 6 2 9 7 9 8 5 8 7 7 3 6 7 7 5 2 8 8 10 7 3 3 6 10 11 10 9 6 7 8
8 7 8 7 5 5 5 6 7 8 9 9 10 9 8 10 10 4 4 5 3 6 9 3 9 6 10 6 10 2 3 6 6 6 6 6 4 4 2 7 5 7 6 3 6 6 4 8 4 4 11 4 3 4 9 10 7 7 7 9 8 7 6 8 9 3 3 7 3 9 4 3 1 3 2 1 2 8 6 10 11 7 9 9 9 8 8 6
8 7 4 9 6 6 6 6 8 9 10 11 8 10 2 7 5 6 5 7 7 9 4 5 7 5 8 8 5 8 12 9 5 4 4 7 4 7 4 6 10 2 3 3 8 2 7 2 8 1 2 2 8 6 8 5 5 10 10 8 8 8 5 5 3 8 5 6 2 2 3 2 1 2 3 4 4 2 4 2 5 4 3 10 10 10 9 10
7 8 4 5 7 7 6 7 9 11 11 10 13 9 7 7 7 7 3 5 8 4 8 6 4 7 9 2 11 9 3 5 6 5 3 7 7 5 2 1 4 10 2 4 7 5 6 4 8 4 6 7 8 7 8 10 10 11 8 9 11 10 10 9 10 7 8 7 6 2 5 4 4 1 2 2 3 4 4 3 3 8 5 8 10 10 9 7
6 8 6 4 7 10 8 10 9 9 9 11 9 10 5 3 5 4 7 7 9 6 9 8 5 9 5 9 8 5 8 5 7 8 5 8 8 7 9 1 4 4 7 6 5 6 4 6 7 6 6 5 8 11 4 8 8 12 8 10 9 9 8 8 8 8 7 9 8 7 3 1 1 2 4 2 2 4 3 4 6 11 4 5 7 10 9 8
8 4 10 6 7 9 8 10 9 10 12 10 5 3 6 4 9 7 8 8 8 7 5 6 6 8 9 9 1 8 4 9 2 7 0 9 4 7 8 3 2 7 5 9 4 3 3 7 6 8 3 2 11 14 7 8 10 11 12 11 8 7 8 10 8 6 7 4 8 5 6 3 1 3 3 1 2 5 6 9 9 8 6 6 5 7 8 8
7 8 4 8 7 8 10 10 10 11 9 12 8 9 8 8 9 8 8 5 7 9 8 8 5 9 7 3 4 10 6 9 6 9 5 3 4 10 4 5 0 10 3 7 7 6 8 3 7 2 6 8 11 10 9 7 5 8 5 3 7 8 9 9 8 2 7 8 8 6 3 3 4 7 2 2 6 5 8 6 7 8 8 2 3 5 6 6
9 7 8 6 7 8 11 9 10 9 10 13 12 13 9 9 8 11 8 10 9 10 3 6 9 3 8 5 7 7 3 9 6 10 12 3 4 6 6 7 4 11 4 9 8 9 8 6 1 7 6 9 6 7 2 7 8 5 9 8 8 9 8 10 10 7 6 6 7 4 4 5 3 5 5 5 8 8 6 7 7 5 6 8 6 7 6 6
5 8 6 8 8 9 11 11 11 10 10 11 14 11 12 12 11 13 10 13 6 7 8 8 2 3 9 4 9 7 9 7 10 2 7 8 6 3 3 3 5 6 9 4 7 7 8 7 8 5 7 7 5 5 5 7 1 10 4 6 9 10 8 10 6 4 7 5 9 6 5 8 7 6 6 4 7 6 5 6 6 6 7 8 9 6 5 8
7 8 5 4 7 9 9 10 11 12 11 6 8 6 13 13 8 10 11 10 10 10 7 8 7 7 8 6 9 9 9 8 10 14 3 10 3 4 9 7 2 2 5 5 10 7 7 8 3 4 7 9 6 5 4 5 5 3 5 8 8 6 11 12 10 8 7 6 4 3 8 7 2 3 5 4 7 8 8 8 6 6 7 7 9 10 8 7
6 4 4 5 5 2 7 10 9 11 14 10 8 6 10 11 13 9 11 12 6 10 11 10 10 8 7 6 4 7 6 7 4 9 10 10 10 5 6 8 11 12 7 8 7 7 6 4 6 11 4 6 7 5 3 5 10 3 2 5 8 11 9 14 11 8 5 8 4 8 11 12 8 7 7 7 8 8 9 8 8 7 7 7 9 10 10 10
8 6 6 3 8 8 10 7 10 10 9 6 7 10 9 11 12 11 7 10 10 8 11 9 11 11 11 9 5 8 8 6 8 9 8 5 9 11 7 12 11 8 9 9 5 2 5 2 12 6 5 5 3 7 2 5 11 9 11 9 15 12 16 16 12 3 6 8 5 10 5 10 8 8 8 8 8 7 7 7 7 10 10 10 13 13 12 12
6 7 7 9 10 11 11 10 9 8 10 8 8 9 9 12 14 11 11 8 9 12 10 14 10 10 12 7 5 8 6 7 9 7 9 12 7 4 9 11 4 10 4 11 8 9 6 2 11 4 5 3 5 5 4 8 7 14 11 9 10 6 2 4 7 3 2 5 10 9 9 6 6 9 10 9 9 7 9 10 10 10 11 12 12 12 11 11
6 5 6 7 8 8 8 9 9 9 8 9 9 11 11 14 14 12 12 11 11 9 11 13 10 10 2 4 4 9 11 12 6 7 7 6 10 8 9 5 8 10 5 5 2 4 4 5 2 6 3 4 4 7 10 10 13 11 15 13 10 8 8 2 3 5 1 3 10 10 4 3 5 7 9 10 10 9 11 10 9 9 11 11 12 11 11 11
7 4 5 5 8 6 8 8 11 9 10 8 8 10 12 12 15 11 10 5 10 13 11 10 11 11 7 5 8 8 11 2 7 6 3 5 7 11 6 5 3 7 9 7 3 5 5 6 5 3 6 5 10 16 11 12 13 13 6 10 17 4 6 5 4 2 7 7 5 7 6 8 10 10 10 9 10 9 9 8 8 11 11 11 12 11 11 10
Wind_Direction
346 344 343 340 337 335 332 331 332 331 330 329 329 327 325 326 322 321 318 312 310 305 309 303 305 305 304 304 304 307 309 292 293 238 227 273 88 123 103 121 155 179 192 208 218 207 211 216 220 220 241 243 220 235 59 255 329 149 26 210 37 314 8 39 64 64 123 134 133 140 126 125 117 128 126 160 104 112 126 106 108 99 89 98 111 125 130 133
346 345 343 341 339 335 332 330 331 331 329 328 328 326 325 323 322 319 312 311 305 305 303 308 306 304 302 299 306 309 302 289 272 251 252 98 121 151 116 187 166 185 202 215 211 208 226 207 227 206 245 246 116 254 303 90 284 20 83 50 255 271 86 264 97 136 127 129 139 131 132 126 114 129 141 141 138 145 126 116 109 106 103 110 121 128 134 143
347 346 344 341 339 336 332 331 329 327 326 325 321 323 321 320 320 319 315 312 312 307 306 308 303 299 297 303 303 304 292 287 250 253 98 108 126 165 177 171 186 196 206 211 211 226 235 241 228 228 230 287 264 334 303 55 44 328 120 35 332 161 217 94 83 93 131 141 139 133 125 120 130 131 160 146 140 145 129 129 130 126 127 127 130 137 142 147
348 346 344 342 339 335 332 329 327 327 324 323 322 319 319 317 315 314 311 312 308 311 309 300 302 299 302 300 307 300 280 277 255 82 51 103 144 150 181 169 189 207 217 243 226 241 249 281 247 246 265 257 238 250 249 44 302 90 304 80 138 200 148 94 81 115 129 146 137 133 128 125 144 131 147 132 140 129 127 135 138 134 134 134 137 141 146 145
347 346 344 342 338 335 333 331 329 324 323 321 320 318 315 314 311 308 308 305 307 302 303 301 297 302 297 298 290 281 291 254 89 63 73 112 128 160 143 177 200 207 223 245 246 250 263 252 234 241 265 260 271 288 5 74 73 77 344 5 25 90 85 67 85 94 138 131 133 136 146 128 124 123 123 147 134 144 142 136 131 135 135 139 142 142 146 146
346 344 343 341 338 336 334 332 328 324 320 319 317 315 313 310 307 305 304 303 302 301 298 298 297 295 299 296 288 273 255 293 49 53 99 103 131 139 161 183 222 235 226 249 236 231 244 236 237 235 232 251 213 278 94 350 205 242 8 303 65 79 110 264 100 82 151 133 137 160 127 126 131 124 101 111 112 114 117 123 131 133 138 140 139 144 146 144
345 343 342 340 338 336 335 331 328 323 321 316 314 311 307 305 304 300 300 300 297 300 296 295 296 298 300 291 267 254 244 65 57 96 100 128 152 151 156 192 207 230 238 240 227 234 225 243 236 252 267 266 261 276 82 284 240 19 202 227 46 105 50 270 109 161 158 150 153 172 124 128 140 130 109 127 114 109 126 129 129 133 140 140 143 148 141 138
344 343 341 340 338 336 334 331 327 323 319 317 313 310 306 301 298 298 295 294 295 292 297 293 296 297 312 293 244 221 230 61 77 104 107 132 168 158 171 181 195 215 225 230 225 232 229 245 240 267 253 296 35 285 70 292 134 265 55 45 113 66 150 204 104 176 144 155 151 153 136 132 152 120 124 115 136 144 126 128 132 137 141 144 142 141 134 138
343 342 342 340 338 336 334 332 329 325 320 316 314 309 303 299 295 293 293 291 290 290 289 293 290 296 293 288 274 265 85 71 69 122 144 169 153 165 183 173 206 215 221 231 236 242 234 229 261 264 323 318 14 295 23 313 32 322 311 112 125 104 149 26 131 133 145 140 132 164 146 147 128 131 112 146 144 126 132 134 140 138 143 144 144 133 143 144
344 342 340 340 337 336 334 332 330 326 322 316 311 307 303 297 292 289 286 287 287 287 285 286 289 295 280 255 267 244 85 90 127 135 154 156 154 171 208 189 191 214 223 228 238 242 234 276 281 7 308 265 263 301 348 276 113 247 317 22 46 118 129 266 153 130 134 150 149 164 144 149 132 179 124 147 144 141 140 141 141 146 143 146 140 139 142 143
344 342 340 340 337 335 335 333 330 327 322 318 314 309 303 295 288 284 282 282 283 282 284 284 296 293 274 264 274 66 261 113 122 144 157 164 173 191 200 214 203 229 241 222 244 238 266 283 290 291 241 331 329 231 273 22 349 38 255 116 138 101 111 186 167 149 157 139 169 146 140 145 151 193 134 155 153 145 146 146 148 145 147 142 139 139 143 137
343 341 340 338 337 335 334 333 331 327 323 320 315 307 301 291 286 280 279 279 278 277 279 283 281 276 274 271 311 78 183 102 139 134 170 174 193 212 224 222 214 237 233 242 224 246 260 284 299 251 295 2 265 275 211 358 314 119 256 81 252 147 132 174 179 159 206 134 152 148 170 163 165 171 147 159 149 142 153 150 152 147 145 146 142 137 145 144
342 341 339 337 335 334 332 332 330 327 324 320 315 309 299 291 285 280 277 276 258 257 263 271 270 256 285 242 87 116 125 109 118 137 162 208 186 208 240 228 227 251 265 266 253 229 249 259 259 270 280 293 299 319 73 270 119 260 151 149 181 162 181 177 184 153 156 136 332 160 164 172 171 138 160 151 152 150 152 159 154 149 149 149 152 145 150 148
342 339 338 336 334 332 331 331 329 327 322 319 315 308 298 290 281 273 266 259 279 282 275 262 273 263 263 92 120 112 249 101 132 197 189 183 210 163 225 218 238 243 254 272 305 316 237 237 268 273 292 270 294 59 235 227 176 217 182 213 226 233 91 163 197 163 171 169 248 226 209 145 197 168 169 161 158 152 155 165 159 155 150 152 154 151 152 146
340 338 337 334 332 330 330 329 328 326 322 317 315 306 297 286 270 258 251 258 247 258 261 271 240 258 220 91 127 111 18 265 199 178 191 187 209 173 199 198 220 229 240 240 261 232 260 240 248 255 255 218 269 265 248 242 185 196 207 189 258 236 78 174 214 173 174 168 200 181 184 152 165 182 168 176 164 160 157 161 164 161 153 154 154 154 154 154
340 337 335 333 329 329 328 327 325 323 321 318 312 303 295 279 263 243 242 252 300 240 243 250 211 232 283 123 115 142 196 206 170 161 156 236 211 239 149 196 209 216 225 226 260 253 229 237 237 265 293 220 251 261 273 20 330 354 323 325 235 212 140 164 215 187 192 166 182 223 104 101 127 257 174 183 172 160 163 161 166 165 157 155 154 156 159 156
337 337 334 332 330 327 327 327 324 326 323 318 310 286 266 290 240 237 239 245 241 223 236 280 321 225 295 75 141 193 175 115 71 196 177 241 280 97 178 182 203 203 211 217 229 232 216 231 233 251 244 271 270 266 273 222 244 223 141 306 332 274 158 159 127 251 215 185 165 196 102 201 198 212 173 182 176 166 167 166 168 160 159 161 155 156 155 156
337 336 336 332 330 329 326 325 326 325 324 314 298 310 304 241 263 221 232 230 227 227 240 253 279 265 129 175 193 78 34 133 200 128 204 150 235 167 183 199 186 196 202 208 200 228 196 227 227 257 237 221 235 253 266 291 341 340 303 105 206 190 227 155 176 184 192 194 176 181 136 196 200 197 175 179 177 178 170 170 169 164 162 166 164 157 157 161
338 336 333 332 329 327 325 323 323 326 323 310 285 281 263 255 238 236 256 185 201 188 214 168 222 317 65 93 63 162 101 64 142 195 163 189 195 203 206 250 199 192 201 222 169 218 179 239 225 237 247 232 237 237 306 340 307 305 311 122 200 212 178 158 159 160 178 176 195 186 182 161 196 170 175 174 175 188 172 168 176 168 162 175 172 160 161 166
336 334 333 330 329 325 324 322 321 322 325 298 208 218 202 199 189 191 205 224 255 6 7 26 341 163 162 132 107 59 149 166 162 193 155 166 206 197 208 203 191 220 222 223 158 212 182 225 224 223 240 227 242 296 173 236 285 288 1 308 182 154 102 128 155 179 186 186 193 173 202 166 149 164 175 167 175 175 179 177 173 175 172 179 181 159 163 165
334 334 332 326 329 325 322 320 318 319 313 276 281 269 352 7 333 66 333 138 14 73 344 30 358 353 35 23 140 182 171 164 237 144 182 159 223 211 170 213 199 214 222 236 190 173 220 235 234 241 246 27 279 251 275 261 209 274 145 197 353 7 128 163 143 174 189 221 150 164 179 187 151 174 266 226 172 183 180 181 179 176 180 183 180 163 168 166
334 331 329 328 324 325 320 318 318 319 292 262 263 283 32 19 3 340 312 183 115 90 168 58 249 169 112 283 47 327 272 133 179 145 136 221 178 234 140 238 203 230 193 226 209 179 219 239 240 241 192 198 276 271 264 280 295 43 353 304 45 104 139 83 153 157 171 40 187 174 186 173 208 238 205 201 182 184 186 183 180 179 182 182 183 173 168 169
332 331 328 327 326 321 322 313 317 316 280 230 248 319 24 349 328 360 270 284 130 126 183 192 198 152 134 146 156 230 245 205 156 166 155 236 198 250 254 227 218 240 199 207 233 204 231 215 238 286 87 208 240 259 276 275 274 97 305 347 87 218 173 160 194 169 189 219 168 174 184 161 202 256 279 302 214 189 189 181 181 188 186 189 184 179 173 172
331 330 328 326 324 324 317 320 304 270 230 255 304 33 357 331 335 315 292 275 124 150 248 88 342 283 93 331 118 241 269 103 253 156 145 223 225 117 254 241 251 247 222 206 240 255 248 43 338 121 195 242 253 232 228 264 255 58 27 335 325 110 176 85 185 234 178 207 353 152 193 182 188 196 244 235 271 191 196 177 178 188 192 196 188 181 181 176
329 328 326 325 324 320 318 319 274 230 226 246 247 45 335 333 314 330 294 268 185 112 171 142 259 54 80 208 191 249 72 130 3 97 155 229 199 223 250 48 282 217 258 225 226 247 264 192 192 193 223 249 252 250 230 219 254 49 143 210 294 175 191 121 131 161 189 192 198 199 204 222 183 204 200 205 234 204 188 197 186 184 195 190 197 179 185 178
326 326 326 323 322 322 306 293 205 306 308 298 25 2 352 312 4 309 274 264 137 113 175 150 252 132 300 189 188 264 202 156 132 110 180 219 327 305 27 229 220 296 251 214 245 258 261 81 221 236 242 256 250 259 259 215 239 233 218 263 334 339 149 163 142 153 171 214 184 211 222 200 167 201 199 203 213 213 199 200 195 189 192 190 205 181 185 182
327 324 322 321 320 323 289 304 357 289 268 110 16 2 332 311 31 250 250 233 159 32 29 79 204 88 261 104 232 129 232 129 149 124 205 136 241 160 270 144 185 235 328 3 233 235 251 80 320 272 272 254 243 234 234 235 271 203 122 230 301 307 355 256 166 210 107 271 126 199 213 167 187 219 205 202 210 204 204 199 200 195 196 188 199 189 183 183
321 323 318 316 314 309 305 318 301 291 12 9 348 324 331 4 251 239 257 263 72 195 136 142 33 117 260 132 260 269 38 143 213 143 221 129 253 182 245 325 290 334 173 221 245 96 206 225 218 234 230 247 248 243 303 322 250 42 148 203 262 328 273 227 239 148 210 178 162 213 198 215 242 198 210 190 209 213 207 202 203 199 193 194 194 200 182 188
317 318 319 312 307 283 264 248 300 290 14 335 322 325 321 127 235 255 269 283 74 213 31 143 128 206 214 178 216 274 177 136 330 117 138 212 246 303 251 21 227 312 202 243 259 124 215 238 219 231 250 233 234 266 213 162 256 142 161 211 251 262 265 294 281 179 265 180 223 196 187 204 174 146 207 193 216 211 210 207 207 198 200 195 192 197 191 183
316 314 314 315 299 219 205 221 240 275 318 319 318 301 271 236 231 239 237 128 180 140 223 79 220 154 196 228 190 153 231 160 341 151 150 240 163 215 238 297 268 235 218 228 252 279 22 355 318 281 229 252 268 248 248 140 240 50 222 232 240 267 339 333 292 318 159 221 257 191 191 205 175 215 184 203 209 211 211 198 204 213 202 201 198 197 195 187
314 304 301 307 267 349 313 246 205 225 316 309 293 282 263 229 256 261 283 70 249 90 206 190 160 164 219 240 210 155 280 60 168 188 179 210 178 217 219 197 233 242 251 214 231 236 207 204 216 226 255 262 266 311 199 303 61 229 225 255 237 254 295 269 271 247 250 236 195 186 205 164 211 172 202 204 225 206 195 210 204 215 217 204 192 200 198 189
311 299 274 240 293 324 249 338 21 336 315 308 294 275 247 252 222 268 47 124 260 107 275 92 161 287 290 186 311 207 156 175 169 206 227 192 183 215 185 253 180 239 220 213 221 187 220 217 203 220 209 252 211 240 167 202 206 222 233 233 243 247 260 268 172 241 253 270 224 189 175 203 231 194 168 182 199 175 177 209 208 204 205 205 196 208 199 191
311 293 260 241 257 240 247 274 297 304 293 277 278 262 249 269 272 97 170 177 127 349 97 273 19 232 251 240 216 92 313 295 109 225 277 36 280 198 51 292 352 308 312 313 292 157 212 187 181 216 192 201 238 222 189 210 199 217 213 227 232 238 238 262 345 306 264 222 108 206 199 105 335 151 156 176 166 209 210 193 188 195 197 196 202 201 199 195
308 300 250 190 204 231 274 301 292 300 286 269 261 255 244 262 278 73 309 252 49 177 210 230 215 192 239 268 105 241 199 123 274 134 236 181 230 213 186 195 244 248 240 319 276 272 245 167 199 188 205 160 219 239 233 252 189 206 215 243 232 240 254 86 278 296 294 295 300 308 215 161 194 154 234 178 187 166 197 170 229 192 185 199 199 205 202 198
310 279 238 179 215 237 241 249 259 270 275 270 254 254 261 261 292 247 212 137 152 121 248 118 255 246 166 259 58 227 312 131 260 146 217 230 181 279 99 141 130 292 326 283 20 315 288 312 71 177 340 151 225 224 257 237 242 215 245 211 246 231 165 260 356 266 327 311 239 251 164 323 141 147 189 170 168 188 170 188 165 175 197 206 196 193 204 201
302 191 188 213 219 194 195 212 228 234 253 259 253 252 251 287 316 162 30 357 253 268 326 199 242 248 202 172 138 273 135 293 126 249 182 265 51 266 66 28 298 92 304 293 95 277 342 243 58 150 199 230 223 226 222 246 250 175 195 216 240 196 204 227 275 13 312 145 274 298 164 65 282 181 61 332 147 93 21 338 132 159 159 208 193 200 192 197
274 156 209 200 218 160 169 191 191 217 238 256 259 250 296 211 228 289 79 265 6 332 243 270 175 268 263 170 173 173 157 253 151 256 179 151 188 55 246 72 316 244 342 321 320 33 305 324 174 267 215 225 257 226 243 206 222 162 213 218 230 151 268 213 239 264 242 248 277 319 138 216 184 287 131 95 326 37 78 117 92 144 133 163 187 192 161 174
305 262 288 238 137 139 174 185 203 223 244 248 248 268 347 274 126 281 66 248 214 206 277 270 108 265 226 295 160 174 147 255 129 228 218 174 115 359 85 233 127 304 1 308 305 138 292 275 159 173 290 196 193 262 248 277 194 207 231 181 231 180 204 196 240 254 274 267 141 92 346 341 359 146 358 342 358 359 37 37 128 141 158 145 147 155 148 154
270 274 234 158 143 173 164 177 216 234 238 234 246 234 216 263 71 264 146 296 305 304 251 233 313 161 313 230 52 295 120 253 139 260 255 126 230 184 238 341 173 153 250 281 260 302 220 277 286 335 254 336 228 226 244 207 202 262 249 219 215 254 242 219 217 251 90 266 318 108 106 255 91 317 174 120 251 341 17 27 358 67 119 137 140 151 149 145
254 243 190 125 141 134 152 193 219 227 235 242 230 249 61 218 202 182 201 224 200 227 248 324 179 306 191 324 326 262 158 278 244 207 273 135 250 131 260 162 315 41 332 299 289 198 278 190 285 106 358 275 240 223 244 240 214 207 214 231 221 234 264 268 210 236 227 292 225 164 86 197 74 271 351 6 81 243 52 37 102 54 141 135 141 152 161 158
283 273 113 148 134 147 164 205 226 219 231 238 259 295 127 244 167 192 207 177 280 230 310 276 317 254 348 149 206 250 7 228 294 282 217 136 239 155 156 303 129 280 324 274 263 246 265 250 263 296 273 217 242 198 144 186 220 246 236 236 226 213 211 206 217 185 212 219 262 278 149 144 233 162 308 13 45 57 9 103 93 118 100 111 141 150 149 158
276 249 110 132 140 171 195 211 216 234 236 231 233 216 227 133 263 238 185 179 245 259 181 282 267 298 234 234 323 107 272 235 201 269 156 295 129 282 100 144 252 306 291 269 317 29 320 314 282 252 273 334 293 325 343 255 234 264 237 239 236 232 242 232 239 217 231 241 266 266 110 194 331 330 329 17 75 76 43 24 98 54 51 119 137 136 149 157
248 294 119 165 164 189 215 237 230 227 232 243 254 291 95 181 249 215 234 184 223 216 249 199 241 220 223 273 78 263 203 266 157 213 348 203 197 54 78 27 320 256 252 258 172 347 58 252 259 298 321 279 277 276 275 272 255 243 230 247 254 248 243 241 241 252 247 257 249 255 224 84 46 315 281 3 67 96 71 26 37 68 38 22 32 105 148 145
313 293 181 145 188 198 230 229 225 223 227 242 246 246 179 244 205 213 225 210 244 172 222 244 210 232 316 155 259 258 143 255 136 287 269 255 270 104 127 257 80 257 248 19 311 82 265 157 274 234 307 264 230 229 217 187 257 254 283 320 294 243 237 256 275 226 251 235 273 275 249 183 189 229 159 130 71 82 89 66 74 107 127 72 27 72 74 98
295 270 268 159 180 207 228 232 248 252 204 231 228 224 220 210 239 261 249 229 203 264 269 232 254 78 222 201 263 263 312 268 289 181 300 341 146 119 108 254 120 277 66 32 317 321 278 297 194 262 223 233 219 227 215 282 236 254 87 300 290 284 256 242 215 209 239 199 254 314 71 294 175 179 145 103 105 79 64 87 85 69 72 95 72 48 48 69
275 283 176 211 188 204 240 265 288 287 282 236 219 219 233 233 196 220 239 259 256 222 235 302 112 237 257 178 240 234 248 218 256 229 193 233 237 166 166 224 241 304 50 13 305 270 286 291 291 301 291 298 329 352 314 246 276 252 40 303 261 293 263 245 272 235 230 205 225 126 141 129 169 159 84 71 91 79 74 86 83 69 68 90 91 76 88 87
308 266 312 257 192 212 237 221 228 241 256 289 260 205 232 236 246 186 188 246 201 243 227 230 232 196 218 239 254 240 226 234 198 280 303 266 214 118 119 269 233 83 82 262 226 288 269 287 303 161 258 255 276 308 226 257 266 263 252 295 288 249 276 257 230 218 104 273 208 29 109 126 159 91 112 79 56 65 69 60 70 72 69 65 91 101 90 99
269 12 313 37 300 240 227 221 232 231 238 250 276 255 248 222 220 230 153 241 254 192 247 176 252 253 281 224 220 251 177 235 257 229 213 248 306 180 227 187 255 138 185 250 237 248 304 247 31 290 260 258 273 231 301 262 237 225 141 253 300 272 260 272 263 252 253 237 218 182 165 155 190 130 102 84 78 76 70 60 49 70 81 79 81 85 86 94
297 335 283 63 263 267 280 326 342 306 284 268 254 251 247 251 242 217 221 189 222 210 221 236 198 225 239 239 247 258 248 221 202 242 297 229 219 266 242 170 207 162 196 257 255 41 289 286 156 251 222 263 267 270 156 348 314 246 202 147 215 216 226 192 233 269 250 224 112 161 101 113 120 107 109 91 81 82 85 72 70 67 64 63 66 64 63 66
2 343 327 348 304 287 283 281 257 246 252 245 256 248 253 240 244 233 220 237 191 223 187 244 260 209 209 220 209 244 239 235 290 276 177 271 240 221 288 301 333 171 242 245 219 131 266 125 120 190 227 173 233 220 191 156 252 311 269 233 249 202 223 155 149 233 307 275 112 151 106 98 106 119 109 104 93 87 83 72 67 60 61 63 62 62 61 60
331 316 339 312 298 277 270 253 251 249 254 242 230 237 241 240 244 245 238 189 242 216 192 229 222 266 210 253 230 239 245 199 202 267 280 176 260 195 214 217 255 268 207 248 335 220 181 271 209 220 240 260 261 226 233 202 148 204 272 295 272 221 219 126 66 86 251 245 136 137 105 171 155 137 108 105 100 84 77 74 76 75 76 70 68 64 61 60
305 254 227 277 276 297 274 257 253 251 247 252 256 239 235 227 236 230 252 220 234 251 242 204 212 245 189 207 224 226 247 223 218 222 305 264 237 295 327 287 281 269 282 279 181 285 262 283 279 264 264 232 196 254 221 228 212 191 206 234 258 351 7 17 24 130 135 239 122 198 190 159 160 135 123 112 104 88 77 67 76 79 78 80 78 71 69 65